Location: Newark
(36.0000°N, 138.0000°E)
Time: 03:32:17
(UTC+00:00)

Tiangong 2 - Visible Passes

Search period start: 21 March 2019 00:00
Search period end: 31 March 2019 00:00
Orbit: 379 x 390 km, 42.8° (Epoch: 20 March)

Date Brightness Start Highest point End Pass type
(mag) Time Alt. Az. Time Alt. Az. Time Alt. Az.
21 Mar 1.6 19:29:32 32° NW 19:30:44 56° NNE 19:33:50 10° ESE visible
22 Mar 4.0 18:33:05 18° ENE 18:33:05 18° ENE 18:34:07 10° E visible
22 Mar 1.6 20:05:20 13° WNW 20:07:56 41° SSW 20:10:57 10° SE visible
23 Mar 1.4 19:09:01 58° SE 19:09:01 58° SE 19:11:39 10° ESE visible
24 Mar 2.5 19:45:08 21° SW 19:45:32 21° SW 19:48:01 10° SSE visible
29 Mar 2.7 09:54:47 10° S 09:56:57 17° SE 09:57:40 16° SE visible
30 Mar 0.9 10:30:47 10° SW 10:33:53 67° SSE 10:33:58 66° SE visible
